When you browse on this site, cookies collect data to enhance your experience and personalize the content and advertising you see.
Visit our Privacy Policy to learn more. By continuing to use the site, you agree to this use of cookies and data.
  • In Spain
  • List of Countries
  • For 7 days
  • Water Temperature
  • Weather Map
  • Weather Widgets
  • user-avatar
    Login

    Hourly Weather Punta Cana

    Today, 22 October, Tuesday

    Time Temperature Precipitation Wind Pressure Humidity
    00:00 +28°C° 0 mm 4 mps 760 mmHg 85%
    01:00 +28°C° 0 mm 4 mps 760 mmHg 86%
    02:00 +28°C° 0.3 mm 4 mps 760 mmHg 87%
    03:00 +28°C° 0.3 mm 4 mps 760 mmHg 88%
    04:00 +27°C° 0.3 mm 4 mps 760 mmHg 89%
    05:00 +28°C° 0.6 mm 5 mps 760 mmHg 86%
    06:00 +29°C° 0.6 mm 5 mps 760 mmHg 84%
    07:00 +29°C° 0.6 mm 5 mps 761 mmHg 82%
    08:00 +30°C° 1 mm 5 mps 761 mmHg 79%
    09:00 +30°C° 1 mm 5 mps 761 mmHg 76%
    10:00 +32°C° 1 mm 5 mps 761 mmHg 73%
    11:00 +32°C° 1.4 mm 5 mps 760 mmHg 72%
    12:00 +32°C° 1.4 mm 5 mps 760 mmHg 71%
    13:00 +32°C° 1.4 mm 5 mps 759 mmHg 70%
    14:00 +32°C° 0.8 mm 5 mps 759 mmHg 72%
    15:00 +30°C° 0.8 mm 4 mps 759 mmHg 74%
    16:00 +30°C° 0.8 mm 4 mps 759 mmHg 77%
    17:00 +29°C° 0.4 mm 4 mps 759 mmHg 80%
    18:00 +28°C° 0.4 mm 4 mps 759 mmHg 84%
    19:00 +28°C° 0.4 mm 4 mps 759 mmHg 87%
    20:00 +28°C° 0.2 mm 4 mps 760 mmHg 88%
    21:00 +28°C° 0.2 mm 4 mps 760 mmHg 88%
    22:00 +28°C° 0.2 mm 4 mps 760 mmHg 88%
    23:00 +27°C° 0.4 mm 3 mps 759 mmHg 87%

    Tomorrow, 23 October, Wednesday

    Time Temperature Precipitation Wind Pressure Humidity
    00:00 +27°C° 0.4 mm 3 mps 759 mmHg 87%
    01:00 +27°C° 0.4 mm 2 mps 759 mmHg 87%
    02:00 +27°C° 0.6 mm 2 mps 759 mmHg 86%
    03:00 +27°C° 0.6 mm 2 mps 759 mmHg 86%
    04:00 +27°C° 0.6 mm 3 mps 759 mmHg 86%
    05:00 +28°C° 0 mm 3 mps 759 mmHg 84%
    06:00 +28°C° 0 mm 3 mps 759 mmHg 82%
    07:00 +29°C° 0 mm 3 mps 760 mmHg 81%
    08:00 +30°C° 0.4 mm 3 mps 760 mmHg 75%
    09:00 +31°C° 0.4 mm 3 mps 760 mmHg 69%
    10:00 +33°C° 0.4 mm 3 mps 761 mmHg 64%
    11:00 +33°C° 0.3 mm 3 mps 760 mmHg 63%
    12:00 +33°C° 0.3 mm 3 mps 760 mmHg 63%
    13:00 +33°C° 0.3 mm 3 mps 759 mmHg 62%
    14:00 +33°C° 0.1 mm 3 mps 759 mmHg 64%
    15:00 +31°C° 0.1 mm 3 mps 759 mmHg 67%
    16:00 +31°C° 0.1 mm 3 mps 759 mmHg 69%
    17:00 +30°C° 0.1 mm 3 mps 759 mmHg 74%
    18:00 +29°C° 0.1 mm 3 mps 759 mmHg 78%
    19:00 +28°C° 0.1 mm 4 mps 760 mmHg 82%
    20:00 +28°C° 0 mm 4 mps 760 mmHg 82%
    21:00 +27°C° 0 mm 4 mps 760 mmHg 82%
    22:00 +27°C° 0 mm 4 mps 760 mmHg 82%
    23:00 +27°C° 0.1 mm 4 mps 760 mmHg 83%

    Day after tomorrow, 24 October, Thursday

    Time Temperature Precipitation Wind Pressure Humidity
    00:00 +27°C° 0.1 mm 4 mps 759 mmHg 84%
    01:00 +27°C° 0.1 mm 4 mps 759 mmHg 85%
    02:00 +27°C° 0.4 mm 4 mps 759 mmHg 85%
    03:00 +27°C° 0.4 mm 3 mps 759 mmHg 85%
    04:00 +27°C° 0.4 mm 3 mps 759 mmHg 85%
    05:00 +28°C° 0.3 mm 3 mps 759 mmHg 83%
    06:00 +28°C° 0.3 mm 3 mps 760 mmHg 80%
    07:00 +29°C° 0.3 mm 3 mps 760 mmHg 77%
    08:00 +30°C° 0.1 mm 3 mps 760 mmHg 71%
    09:00 +31°C° 0.1 mm 3 mps 761 mmHg 65%
    10:00 +33°C° 0.1 mm 3 mps 761 mmHg 58%
    11:00 +34°C° 0 mm 3 mps 760 mmHg 58%
    12:00 +34°C° 0 mm 2 mps 760 mmHg 57%
    13:00 +34°C° 0 mm 2 mps 759 mmHg 56%
    14:00 +33°C° 0 mm 3 mps 759 mmHg 60%
    15:00 +33°C° 0 mm 3 mps 759 mmHg 63%
    16:00 +31°C° 0 mm 3 mps 759 mmHg 67%
    17:00 +30°C° 0 mm 3 mps 759 mmHg 71%
    18:00 +29°C° 0 mm 3 mps 760 mmHg 76%
    19:00 +28°C° 0 mm 3 mps 760 mmHg 80%
    20:00 +28°C° 0.3 mm 3 mps 760 mmHg 82%
    21:00 +27°C° 0.3 mm 4 mps 760 mmHg 84%
    22:00 +27°C° 0.3 mm 4 mps 761 mmHg 85%
    23:00 +27°C° 0.7 mm 3 mps 760 mmHg 86%

    25 October, Friday

    Time Temperature Precipitation Wind Pressure Humidity
    00:00 +27°C° 0.7 mm 3 mps 760 mmHg 87%
    01:00 +27°C° 0.7 mm 3 mps 760 mmHg 88%
    02:00 +27°C° 0.2 mm 3 mps 760 mmHg 88%
    03:00 +27°C° 0.2 mm 3 mps 760 mmHg 88%
    04:00 +27°C° 0.2 mm 2 mps 760 mmHg 89%
    05:00 +27°C° 0 mm 3 mps 760 mmHg 87%
    06:00 +28°C° 0 mm 3 mps 760 mmHg 85%
    07:00 +28°C° 0 mm 3 mps 761 mmHg 83%
    08:00 +30°C° 0 mm 3 mps 761 mmHg 77%
    09:00 +31°C° 0 mm 3 mps 761 mmHg 71%
    10:00 +33°C° 0 mm 3 mps 761 mmHg 65%
    11:00 +33°C° 0 mm 3 mps 761 mmHg 63%
    12:00 +33°C° 0 mm 3 mps 760 mmHg 61%
    13:00 +34°C° 0 mm 2 mps 760 mmHg 58%
    14:00 +32°C° 0 mm 2 mps 760 mmHg 62%
    15:00 +31°C° 0 mm 3 mps 760 mmHg 66%
    16:00 +31°C° 0 mm 3 mps 759 mmHg 70%
    17:00 +30°C° 0 mm 3 mps 760 mmHg 74%
    18:00 +29°C° 0 mm 3 mps 760 mmHg 78%
    19:00 +28°C° 0 mm 3 mps 760 mmHg 82%
    20:00 +28°C° 0 mm 3 mps 760 mmHg 84%
    21:00 +28°C° 0 mm 3 mps 761 mmHg 85%
    22:00 +28°C° 0 mm 4 mps 761 mmHg 86%
    23:00 +28°C° 0.3 mm 4 mps 760 mmHg 87%

    26 October, Saturday

    Time Temperature Precipitation Wind Pressure Humidity
    00:00 +27°C° 0.3 mm 4 mps 760 mmHg 87%
    01:00 +27°C° 0.3 mm 5 mps 760 mmHg 88%
    02:00 +27°C° 0.1 mm 4 mps 760 mmHg 88%
    03:00 +27°C° 0.1 mm 4 mps 760 mmHg 88%
    04:00 +27°C° 0.1 mm 4 mps 760 mmHg 88%
    05:00 +28°C° 0.2 mm 4 mps 760 mmHg 85%
    06:00 +28°C° 0.2 mm 4 mps 760 mmHg 83%
    07:00 +29°C° 0.2 mm 4 mps 761 mmHg 80%
    08:00 +30°C° 0 mm 4 mps 761 mmHg 75%
    09:00 +32°C° 0 mm 4 mps 761 mmHg 71%
    10:00 +33°C° 0 mm 4 mps 761 mmHg 66%
    11:00 +33°C° 0 mm 4 mps 761 mmHg 64%
    12:00 +33°C° 0 mm 3 mps 760 mmHg 62%
    13:00 +34°C° 0 mm 3 mps 760 mmHg 61%
    14:00 +33°C° 0 mm 3 mps 760 mmHg 64%
    15:00 +31°C° 0 mm 3 mps 760 mmHg 67%
    16:00 +30°C° 0 mm 3 mps 760 mmHg 70%
    17:00 +29°C° 0.1 mm 3 mps 760 mmHg 75%
    18:00 +28°C° 0.1 mm 3 mps 760 mmHg 79%
    19:00 +27°C° 0.1 mm 3 mps 760 mmHg 83%
    20:00 +27°C° 0 mm 4 mps 761 mmHg 84%
    21:00 +27°C° 0 mm 4 mps 761 mmHg 84%
    22:00 +27°C° 0 mm 4 mps 761 mmHg 84%
    23:00 +27°C° 0.3 mm 4 mps 761 mmHg 86%

    27 October, Sunday

    Time Temperature Precipitation Wind Pressure Humidity
    00:00 +27°C° 0.3 mm 4 mps 760 mmHg 88%
    01:00 +27°C° 0.3 mm 4 mps 760 mmHg 90%
    02:00 +27°C° 0.2 mm 4 mps 760 mmHg 90%
    03:00 +27°C° 0.2 mm 4 mps 760 mmHg 90%
    04:00 +27°C° 0.2 mm 4 mps 760 mmHg 90%
    05:00 +28°C° 0.1 mm 4 mps 760 mmHg 88%
    06:00 +28°C° 0.1 mm 4 mps 761 mmHg 85%
    07:00 +29°C° 0.1 mm 4 mps 761 mmHg 82%
    08:00 +30°C° 0 mm 4 mps 761 mmHg 76%
    09:00 +32°C° 0 mm 4 mps 761 mmHg 70%
    10:00 +33°C° 0 mm 4 mps 762 mmHg 63%
    11:00 +33°C° 0 mm 3 mps 761 mmHg 62%
    12:00 +34°C° 0 mm 3 mps 760 mmHg 61%
    13:00 +34°C° 0 mm 3 mps 760 mmHg 60%
    14:00 +33°C° 0 mm 3 mps 760 mmHg 62%
    15:00 +31°C° 0 mm 3 mps 760 mmHg 65%
    16:00 +31°C° 0 mm 2 mps 759 mmHg 67%
    17:00 +30°C° 0 mm 3 mps 760 mmHg 72%
    18:00 +29°C° 0 mm 3 mps 760 mmHg 76%
    19:00 +28°C° 0 mm 3 mps 761 mmHg 81%
    20:00 +28°C° 0.5 mm 3 mps 761 mmHg 82%
    21:00 +28°C° 0.5 mm 4 mps 761 mmHg 84%
    22:00 +28°C° 0.5 mm 4 mps 761 mmHg 85%
    23:00 +27°C° 0.4 mm 4 mps 761 mmHg 87%

    28 October, Monday

    Time Temperature Precipitation Wind Pressure Humidity
    00:00 +27°C° 0.4 mm 4 mps 761 mmHg 88%
    01:00 +27°C° 0.4 mm 4 mps 760 mmHg 89%
    02:00 +27°C° 0.1 mm 4 mps 760 mmHg 89%
    03:00 +27°C° 0.1 mm 5 mps 760 mmHg 89%
    04:00 +27°C° 0.1 mm 5 mps 760 mmHg 90%
    05:00 +28°C° 0 mm 5 mps 760 mmHg 86%
    06:00 +29°C° 0 mm 5 mps 761 mmHg 82%
    07:00 +29°C° 0 mm 5 mps 761 mmHg 78%
    08:00 +30°C° 1.2 mm 6 mps 761 mmHg 74%
    09:00 +32°C° 1.2 mm 6 mps 761 mmHg 70%
    10:00 +33°C° 1.2 mm 6 mps 761 mmHg 66%
    11:00 +32°C° 3.9 mm 5 mps 761 mmHg 70%
    12:00 +32°C° 3.9 mm 5 mps 760 mmHg 74%
    13:00 +30°C° 3.9 mm 4 mps 760 mmHg 78%
    14:00 +30°C° 1.2 mm 4 mps 759 mmHg 79%
    15:00 +30°C° 1.2 mm 3 mps 759 mmHg 79%
    16:00 +30°C° 1.2 mm 3 mps 759 mmHg 79%
    17:00 +29°C° 0 mm 2 mps 759 mmHg 82%
    18:00 +28°C° 0 mm 2 mps 760 mmHg 84%
    19:00 +27°C° 0 mm 2 mps 760 mmHg 87%
    20:00 +27°C° 0 mm 2 mps 760 mmHg 87%
    21:00 +27°C° 0 mm 2 mps 760 mmHg 87%
    22:00 +27°C° 0 mm 2 mps 760 mmHg 88%
    23:00 +27°C° 0.4 mm 1 mps 760 mmHg 88%
    Show more